SCP
0 1 -0 0 0 0 0 0 0 0 -0 -0 -0 -0 -1 -1 -1 -0 -0 -0 0 0 0 0 0 0 0 0 0 0 0 0 -0 -0 -0 -0 -0 -0 -0 -0 0 -0 -0
1 1 0 0 0 0 0 0 0 1 0 -0 -0 -0 -0 -0 -0 -0 -0 0 0 0 0 0 0 0 -0 -0 0 -0 0 0 -0 -0 -0 -0 -0 -0 -0 0 0 -0 -0
0 1 1 1 0 0 0 0 1 1 1 0 -0 -0 -0 -0 -0 -0 -0 0 0 0 0 0 0 -0 -0 -0 -0 -0 -0 -0 0 -0 0 0 0 -0 -0 -0 -0 -0 -0
1 1 1 1 0 1 0 1 1 1 1 1 1 0 0 -0 -0 -0 -0 0 0 0 0 0 -0 -0 -0 -0 -0 -0 -0 -0 0 -0 0 0 0 -0 -0 -0 -0 -0 -0
1 1 1 1 1 1 1 1 1 1 1 1 1 0 0 0 0 -0 0 0 0 0 0 0 -0 -0 -0 -0 -0 -0 -0 -0 0 0 0 0 0 0 -0 -0 -0 -0 -0
1 1 1 1 1 1 1 1 1 1 1 1 1 1 0 0 0 0 0 0 0 0 0 0 -0 -0 -0 -0 -0 -0 -0 -0 0 -0 0 0 0 -0 -0 -0 -0 -0 -0
1 2 1 1 1 1 1 1 1 1 1 1 1 1 1 1 0 0 0 0 0 0 0 -0 -0 -0 -0 -0 0 -0 0 0 0 0 0 0 0 -0 -0 -0 -0 -0 -0
1 2 2 1 1 2 2 2 1 1 1 1 1 1 1 1 1 1 0 0 0 0 0 0 0 -0 0 0 0 0 0 0 0 -0 0 0 -0 -0 -0 -0 -0 -0 -0
1 2 3 2 2 2 2 2 1 1 1 1 1 1 1 1 1 1 0 0 0 0 0 0 0 0 0 0 0 0 0 0 0 0 0 0 -0 -0 -0 -0 -0 -0 -0
2 2 2 2 2 2 1 1 1 1 1 1 1 1 1 1 1 1 1 0 0 0 0 -0 -0 0 0 0 0 0 0 0 0 0 0 0 0 -0 -0 0 -0 -0 0
1 2 1 2 2 2 2 2 1 1 1 1 1 1 1 1 1 0 1 1 1 0 0 0 -0 0 0 0 0 0 0 0 0 0 0 0 0 -0 -0 0 0 0 0
1 1 1 1 2 2 2 1 1 1 1 1 0 1 1 1 1 1 1 1 1 1 0 0 0 0 0 0 0 0 0 0 0 0 0 0 0 0 0 0 0 0 0
0 1 1 1 2 2 2 1 1 1 1 1 0 1 1 1 1 1 1 1 1 1 1 0 0 0 0 0 0 0 0 0 0 0 0 0 0 0 0 0 0 0 0
0 0 1 1 1 2 2 1 1 1 1 1 1 1 1 1 1 1 1 1 1 1 1 1 1 0 0 0 0 0 0 0 0 0 0 0 0 0 0 0 0 0 0
1 1 0 1 1 1 2 1 1 1 1 1 1 1 1 1 1 1 1 1 1 1 1 1 1 1 0 0 0 1 0 0 0 1 0 0 0 0 0 0 0 0 -0
0 0 1 1 1 2 2 2 2 2 2 2 1 1 1 2 1 1 1 1 1 1 1 1 1 1 0 1 1 0 0 0 0 1 1 0 0 0 0 0 0 0 0
0 0 0 1 1 1 2 3 2 2 2 2 2 2 2 2 2 2 2 1 1 1 1 0 0 0 0 1 0 0 0 0 0 0 0 0 0 0 0 0 0 0 0
0 0 0 0 2 2 2 3 4 3 3 3 2 2 2 2 2 2 2 1 2 1 1 1 0 0 0 0 0 0 0 0 0 0 0 0 0 0 0 0 0 0 0
0 0 0 0 1 2 2 4 3 3 4 4 3 3 2 2 2 2 2 1 1 1 1 1 0 0 0 0 0 0 0 0 0 0 0 0 0 0 0 -0 0 0 0
0 0 0 0 0 1 3 4 4 4 4 4 3 2 2 2 2 1 2 2 1 1 1 1 1 0 0 0 0 0 0 0 0 0 0 0 0 0 0 0 0 0 0
0 0 0 0 0 0 2 3 3 3 3 4 3 2 2 2 2 2 2 2 1 1 1 0 0 0 0 0 0 0 0 0 0 0 0 0 0 0 0 0 0 0 0
0 0 0 0 0 0 1 3 3 3 3 4 4 3 2 2 2 2 2 2 1 1 1 1 0 0 0 0 0 0 0 0 0 0 0 0 0 0 0 0 0 0 0
0 0 0 0 0 0 0 1 3 4 3 4 4 3 2 2 2 2 2 1 1 1 1 1 0 0 0 0 0 0 0 0 0 0 0 0 0 0 0 0 0 0 0
0 0 0 0 0 0 0 0 2 4 4 3 5 4 3 3 2 2 2 1 1 1 1 1 1 0 1 0 0 0 1 0 0 0 0 0 0 0 0 0 0 0 0
0 0 0 0 0 0 0 0 3 3 5 4 5 4 3 3 2 2 2 1 1 1 1 1 1 0 1 1 0 0 0 0 0 0 0 0 0 0 0 0 0 0 0
0 0 0 0 0 0 0 0 2 3 4 5 4 4 4 3 3 2 1 1 1 1 1 1 1 0 0 0 0 0 0 0 0 0 0 0 0 0 0 0 0 0 0
Wind_Speed_500mb
60 62 61 55 52 48 44 41 38 37 38 40 41 43 40 36 34 34 34 31 29 28 27 26 23 21 21 23 24 26 16 16 18 19 22 29 31 33 34 33 35 35 35
68 66 61 56 53 50 47 42 38 36 38 41 44 45 42 38 37 36 33 30 27 26 26 25 22 23 24 23 25 22 15 18 19 22 28 29 30 32 33 32 34 36 36
63 67 61 56 53 51 49 43 38 37 38 39 42 44 42 41 39 36 33 31 27 25 26 26 26 25 26 23 22 18 19 22 23 27 31 29 30 31 32 32 33 35 36
62 67 62 57 53 52 49 44 40 37 37 36 36 40 42 41 38 36 33 30 27 27 27 28 27 27 24 23 23 21 23 25 25 29 29 32 33 32 32 33 33 34 35
64 65 61 57 54 52 49 44 40 37 37 35 34 35 38 39 37 35 33 29 28 30 29 29 28 26 23 22 21 22 22 23 24 25 27 31 31 32 33 32 33 32 33
62 63 60 56 54 53 49 44 42 39 37 35 35 36 36 37 35 34 31 30 31 29 29 28 27 24 23 22 22 21 22 23 24 23 25 29 32 33 32 31 30 31 30
57 62 59 55 55 53 49 46 43 40 37 37 36 37 36 36 35 33 32 31 31 29 28 27 26 24 23 23 22 21 22 22 24 24 26 29 30 34 34 33 33 29 27
58 64 60 57 56 54 50 47 43 40 38 38 38 37 37 36 35 34 32 32 31 30 29 28 27 26 26 24 23 21 21 22 23 22 23 26 30 34 36 36 33 28 26
57 63 62 61 59 53 47 46 44 42 40 40 40 39 37 37 36 36 35 33 31 30 30 29 28 28 27 25 23 22 23 22 22 23 21 25 29 34 38 40 34 28 16
58 63 63 62 59 55 53 49 46 43 41 41 41 41 38 37 38 37 35 34 32 31 29 29 30 31 29 26 23 22 23 22 23 24 23 24 30 34 41 40 31 20 16
55 62 64 65 62 58 54 51 48 45 44 43 43 42 41 42 42 40 40 38 34 32 31 31 33 33 30 27 24 24 25 25 27 26 24 26 31 35 39 40 31 21 19
49 59 61 62 62 58 56 55 52 50 50 49 48 48 49 46 45 45 42 40 38 36 34 34 35 34 34 33 31 30 29 26 26 26 25 27 32 36 35 38 32 24 20
39 52 61 63 64 62 62 60 58 55 55 52 51 51 51 50 49 48 47 46 45 42 41 39 40 42 41 38 37 36 32 28 26 26 24 25 31 34 38 38 35 26 20
32 39 50 57 62 64 64 63 61 58 56 54 53 52 53 54 55 53 54 54 52 51 49 48 47 45 42 42 39 37 34 30 28 28 29 26 32 36 43 41 35 27 21
28 25 37 43 60 64 63 64 66 62 59 56 56 55 54 56 57 57 57 58 57 55 53 51 49 47 46 44 42 40 38 36 31 32 31 31 35 41 46 44 37 30 27
45 42 34 37 37 56 70 70 70 66 63 60 59 59 58 57 57 59 60 61 60 58 57 55 51 48 48 46 46 46 44 43 40 38 33 33 37 43 47 48 38 32 30
48 47 50 45 45 48 57 66 73 71 69 66 64 65 65 63 63 63 63 64 61 62 59 57 54 51 51 50 51 51 50 48 51 42 37 32 34 40 54 59 28 31 30
51 52 48 57 57 56 60 63 71 75 74 72 68 67 70 68 66 67 69 68 66 62 62 61 58 55 54 54 53 56 55 53 56 49 44 46 34 23 45 57 35 35 32
47 52 55 52 57 61 63 69 75 77 78 73 69 71 74 77 72 70 69 70 69 66 64 64 63 60 58 58 58 52 49 48 55 56 58 57 57 46 32 53 55 45 38
54 51 53 58 63 64 73 74 78 84 84 81 75 74 76 77 80 75 72 71 72 70 68 66 65 61 62 59 47 43 46 50 50 61 62 61 59 56 51 58 54 52 45
64 58 54 55 58 63 71 82 83 89 88 89 88 76 77 76 76 77 75 74 75 75 72 69 63 62 67 59 52 54 52 57 63 62 64 66 63 62 49 50 64 61 51
55 56 58 60 60 61 70 76 79 87 91 93 98 93 84 80 73 79 83 83 80 77 76 70 66 67 67 65 60 57 41 53 70 73 70 74 68 61 58 58 62 70 56
50 51 57 63 65 66 64 64 68 73 81 87 98 104 94 88 83 79 83 83 78 80 79 75 70 68 69 71 68 58 27 35 34 50 69 70 65 63 64 60 62 67 64
56 62 59 64 67 67 66 68 70 80 83 89 98 101 101 99 90 84 81 79 82 79 79 76 73 70 66 72 67 73 67 31 21 20 37 47 60 59 60 72 74 79 70
55 58 69 69 65 68 68 70 75 84 88 89 93 93 103 109 93 88 80 82 85 78 73 75 75 73 69 68 74 71 64 68 72 50 31 46 55 58 60 75 73 77 74
46 46 55 61 66 62 69 74 80 85 85 80 89 93 98 105 99 93 89 81 80 75 70 70 73 69 69 71 72 68 70 63 71 73 60 49 50 56 59 62 77 75 74
Wind_Direction_500mb
187 191 183 180 181 184 185 184 180 173 167 165 165 166 169 170 167 162 156 154 153 152 152 156 158 163 164 159 156 152 151 148 146 147 144 142 141 140 140 136 134 133 132
190 189 183 184 182 184 184 186 184 178 172 167 166 168 170 170 167 164 160 162 160 158 158 161 157 154 156 157 155 154 159 158 153 150 145 146 145 143 140 141 141 136 135
191 187 186 186 183 185 185 189 188 182 177 173 168 166 168 168 168 167 165 167 165 163 163 163 159 158 155 158 165 167 161 158 160 151 147 142 149 149 148 146 144 140 138
193 189 188 187 184 187 189 190 191 188 184 180 177 170 167 167 169 170 169 170 167 165 169 168 166 164 162 163 163 162 161 165 163 156 155 156 154 153 150 149 146 144 141
187 190 191 187 186 191 193 192 194 194 190 186 185 178 171 170 172 175 171 171 167 170 170 168 170 169 170 170 167 168 167 167 166 170 174 156 154 155 155 154 150 148 146
186 192 193 189 190 194 195 194 196 196 194 192 190 183 178 175 175 177 174 172 170 171 174 176 176 177 175 173 174 170 168 168 171 180 170 163 160 157 161 159 156 152 148
193 194 194 192 195 198 197 197 197 198 197 197 193 187 183 182 181 180 178 175 175 173 179 185 182 183 180 176 174 172 171 173 178 181 174 172 166 163 164 161 156 153 156
201 194 194 195 198 201 198 199 200 202 199 201 198 193 189 188 187 185 182 182 181 179 180 188 188 188 184 178 175 176 175 175 179 182 183 176 169 171 173 166 159 165 154
205 199 196 197 200 204 201 203 204 204 201 203 202 198 195 193 193 190 188 189 190 182 185 190 192 190 186 180 180 178 180 177 183 181 188 183 182 180 179 172 173 173 163
206 203 203 201 200 200 201 205 207 207 205 205 205 202 199 198 198 197 196 195 194 187 189 194 197 193 189 186 187 185 184 179 192 188 192 196 188 190 186 185 188 191 181
212 207 205 205 202 202 203 205 208 209 209 207 206 206 203 203 201 200 201 200 201 199 195 199 200 197 195 194 192 193 191 191 196 196 200 201 199 199 195 198 203 201 193
219 213 212 211 208 204 206 206 207 209 210 210 208 206 207 207 208 205 204 205 206 206 203 203 202 202 201 201 197 198 202 198 201 200 201 201 208 202 205 207 206 208 208
237 225 220 217 212 209 208 209 209 210 211 211 213 211 211 209 210 210 206 204 208 206 206 205 204 207 209 209 209 208 204 204 203 202 205 208 212 215 216 216 210 218 221
267 250 242 232 224 217 216 214 215 215 215 215 214 214 216 214 213 213 211 209 210 211 210 210 210 214 214 215 218 217 213 207 205 207 201 212 226 220 220 219 215 226 234
286 286 260 247 243 232 224 222 223 222 222 221 218 218 219 219 217 217 217 214 214 215 216 216 216 218 219 221 222 222 221 217 215 211 217 233 237 228 223 218 221 227 234
286 279 266 254 254 249 240 229 227 228 229 227 224 224 224 224 223 222 220 220 218 218 221 221 222 223 224 227 228 226 224 227 223 224 235 239 233 234 225 222 232 221 233
280 272 274 274 269 254 248 246 237 232 233 232 229 230 227 226 225 226 224 221 223 221 222 224 224 225 228 231 233 231 228 230 228 231 241 228 235 239 233 224 224 237 232
286 273 271 267 266 261 254 246 245 240 237 237 235 235 234 232 230 228 227 224 222 224 224 225 227 226 230 232 236 233 233 237 231 237 237 223 231 278 251 244 219 230 231
278 266 263 262 258 262 257 249 243 245 242 239 237 239 240 235 233 231 228 227 225 222 225 226 228 229 232 234 237 239 239 241 242 244 241 241 244 259 260 266 220 232 235
275 267 259 253 253 260 255 249 246 242 238 240 237 238 241 239 237 230 229 228 227 226 223 226 228 233 235 239 241 243 242 240 246 252 245 248 249 259 251 237 226 229 237
288 267 258 253 251 251 249 246 242 241 237 233 236 238 242 242 238 234 231 230 228 227 225 225 226 230 235 237 237 242 245 248 248 244 248 251 256 259 250 241 230 225 232
277 263 257 259 252 246 249 247 248 247 241 233 232 234 239 243 239 237 231 229 229 227 227 226 223 226 231 236 232 236 244 249 249 244 248 255 260 256 256 242 230 231 229
286 271 264 264 262 249 243 246 245 245 244 236 233 230 233 239 237 236 233 232 230 229 229 229 224 224 226 234 234 230 230 241 253 255 252 258 255 259 250 249 236 226 225
297 288 272 261 256 252 244 237 232 235 223 225 231 229 227 235 235 234 236 233 232 230 230 232 230 227 226 232 233 234 233 234 232 255 255 260 254 250 255 245 242 230 220
298 296 288 266 256 245 242 238 236 232 234 227 232 230 226 232 232 233 232 231 230 230 231 232 232 229 227 232 239 237 235 244 246 251 253 264 262 249 253 260 252 235 217
302 294 288 277 259 246 240 239 235 234 227 219 226 229 226 228 229 229 229 229 230 231 231 232 235 231 235 235 242 242 240 242 244 246 248 253 252 258 267 254 253 231 221
Wind_Speed_850mb
60 62 61 55 52 48 44 41 38 37 38 40 41 43 40 36 34 34 34 31 29 28 27 26 23 21 21 23 24 26 16 16 18 19 22 29 31 33 34 33 35 35 35
68 66 61 56 53 50 47 42 38 36 38 41 44 45 42 38 37 36 33 30 27 26 26 25 22 23 24 23 25 22 15 18 19 22 28 29 30 32 33 32 34 36 36
63 67 61 56 53 51 49 43 38 37 38 39 42 44 42 41 39 36 33 31 27 25 26 26 26 25 26 23 22 18 19 22 23 27 31 29 30 31 32 32 33 35 36
62 67 62 57 53 52 49 44 40 37 37 36 36 40 42 41 38 36 33 30 27 27 27 28 27 27 24 23 23 21 23 25 25 29 29 32 33 32 32 33 33 34 35
64 65 61 57 54 52 49 44 40 37 37 35 34 35 38 39 37 35 33 29 28 30 29 29 28 26 23 22 21 22 22 23 24 25 27 31 31 32 33 32 33 32 33
62 63 60 56 54 53 49 44 42 39 37 35 35 36 36 37 35 34 31 30 31 29 29 28 27 24 23 22 22 21 22 23 24 23 25 29 32 33 32 31 30 31 30
57 62 59 55 55 53 49 46 43 40 37 37 36 37 36 36 35 33 32 31 31 29 28 27 26 24 23 23 22 21 22 22 24 24 26 29 30 34 34 33 33 29 27
58 64 60 57 56 54 50 47 43 40 38 38 38 37 37 36 35 34 32 32 31 30 29 28 27 26 26 24 23 21 21 22 23 22 23 26 30 34 36 36 33 28 26
57 63 62 61 59 53 47 46 44 42 40 40 40 39 37 37 36 36 35 33 31 30 30 29 28 28 27 25 23 22 23 22 22 23 21 25 29 34 38 40 34 28 16
58 63 63 62 59 55 53 49 46 43 41 41 41 41 38 37 38 37 35 34 32 31 29 29 30 31 29 26 23 22 23 22 23 24 23 24 30 34 41 40 31 20 16
55 62 64 65 62 58 54 51 48 45 44 43 43 42 41 42 42 40 40 38 34 32 31 31 33 33 30 27 24 24 25 25 27 26 24 26 31 35 39 40 31 21 19
49 59 61 62 62 58 56 55 52 50 50 49 48 48 49 46 45 45 42 40 38 36 34 34 35 34 34 33 31 30 29 26 26 26 25 27 32 36 35 38 32 24 20
39 52 61 63 64 62 62 60 58 55 55 52 51 51 51 50 49 48 47 46 45 42 41 39 40 42 41 38 37 36 32 28 26 26 24 25 31 34 38 38 35 26 20
32 39 50 57 62 64 64 63 61 58 56 54 53 52 53 54 55 53 54 54 52 51 49 48 47 45 42 42 39 37 34 30 28 28 29 26 32 36 43 41 35 27 21
28 25 37 43 60 64 63 64 66 62 59 56 56 55 54 56 57 57 57 58 57 55 53 51 49 47 46 44 42 40 38 36 31 32 31 31 35 41 46 44 37 30 27
45 42 34 37 37 56 70 70 70 66 63 60 59 59 58 57 57 59 60 61 60 58 57 55 51 48 48 46 46 46 44 43 40 38 33 33 37 43 47 48 38 32 30
48 47 50 45 45 48 57 66 73 71 69 66 64 65 65 63 63 63 63 64 61 62 59 57 54 51 51 50 51 51 50 48 51 42 37 32 34 40 54 59 28 31 30
51 52 48 57 57 56 60 63 71 75 74 72 68 67 70 68 66 67 69 68 66 62 62 61 58 55 54 54 53 56 55 53 56 49 44 46 34 23 45 57 35 35 32
47 52 55 52 57 61 63 69 75 77 78 73 69 71 74 77 72 70 69 70 69 66 64 64 63 60 58 58 58 52 49 48 55 56 58 57 57 46 32 53 55 45 38
54 51 53 58 63 64 73 74 78 84 84 81 75 74 76 77 80 75 72 71 72 70 68 66 65 61 62 59 47 43 46 50 50 61 62 61 59 56 51 58 54 52 45
64 58 54 55 58 63 71 82 83 89 88 89 88 76 77 76 76 77 75 74 75 75 72 69 63 62 67 59 52 54 52 57 63 62 64 66 63 62 49 50 64 61 51
55 56 58 60 60 61 70 76 79 87 91 93 98 93 84 80 73 79 83 83 80 77 76 70 66 67 67 65 60 57 41 53 70 73 70 74 68 61 58 58 62 70 56
50 51 57 63 65 66 64 64 68 73 81 87 98 104 94 88 83 79 83 83 78 80 79 75 70 68 69 71 68 58 27 35 34 50 69 70 65 63 64 60 62 67 64
56 62 59 64 67 67 66 68 70 80 83 89 98 101 101 99 90 84 81 79 82 79 79 76 73 70 66 72 67 73 67 31 21 20 37 47 60 59 60 72 74 79 70
55 58 69 69 65 68 68 70 75 84 88 89 93 93 103 109 93 88 80 82 85 78 73 75 75 73 69 68 74 71 64 68 72 50 31 46 55 58 60 75 73 77 74
46 46 55 61 66 62 69 74 80 85 85 80 89 93 98 105 99 93 89 81 80 75 70 70 73 69 69 71 72 68 70 63 71 73 60 49 50 56 59 62 77 75 74
Wind_Direction_850mb
187 191 183 180 181 184 185 184 180 173 167 165 165 166 169 170 167 162 156 154 153 152 152 156 158 163 164 159 156 152 151 148 146 147 144 142 141 140 140 136 134 133 132
190 189 183 184 182 184 184 186 184 178 172 167 166 168 170 170 167 164 160 162 160 158 158 161 157 154 156 157 155 154 159 158 153 150 145 146 145 143 140 141 141 136 135
191 187 186 186 183 185 185 189 188 182 177 173 168 166 168 168 168 167 165 167 165 163 163 163 159 158 155 158 165 167 161 158 160 151 147 142 149 149 148 146 144 140 138
193 189 188 187 184 187 189 190 191 188 184 180 177 170 167 167 169 170 169 170 167 165 169 168 166 164 162 163 163 162 161 165 163 156 155 156 154 153 150 149 146 144 141
187 190 191 187 186 191 193 192 194 194 190 186 185 178 171 170 172 175 171 171 167 170 170 168 170 169 170 170 167 168 167 167 166 170 174 156 154 155 155 154 150 148 146
186 192 193 189 190 194 195 194 196 196 194 192 190 183 178 175 175 177 174 172 170 171 174 176 176 177 175 173 174 170 168 168 171 180 170 163 160 157 161 159 156 152 148
193 194 194 192 195 198 197 197 197 198 197 197 193 187 183 182 181 180 178 175 175 173 179 185 182 183 180 176 174 172 171 173 178 181 174 172 166 163 164 161 156 153 156
201 194 194 195 198 201 198 199 200 202 199 201 198 193 189 188 187 185 182 182 181 179 180 188 188 188 184 178 175 176 175 175 179 182 183 176 169 171 173 166 159 165 154
205 199 196 197 200 204 201 203 204 204 201 203 202 198 195 193 193 190 188 189 190 182 185 190 192 190 186 180 180 178 180 177 183 181 188 183 182 180 179 172 173 173 163
206 203 203 201 200 200 201 205 207 207 205 205 205 202 199 198 198 197 196 195 194 187 189 194 197 193 189 186 187 185 184 179 192 188 192 196 188 190 186 185 188 191 181
212 207 205 205 202 202 203 205 208 209 209 207 206 206 203 203 201 200 201 200 201 199 195 199 200 197 195 194 192 193 191 191 196 196 200 201 199 199 195 198 203 201 193
219 213 212 211 208 204 206 206 207 209 210 210 208 206 207 207 208 205 204 205 206 206 203 203 202 202 201 201 197 198 202 198 201 200 201 201 208 202 205 207 206 208 208
237 225 220 217 212 209 208 209 209 210 211 211 213 211 211 209 210 210 206 204 208 206 206 205 204 207 209 209 209 208 204 204 203 202 205 208 212 215 216 216 210 218 221
267 250 242 232 224 217 216 214 215 215 215 215 214 214 216 214 213 213 211 209 210 211 210 210 210 214 214 215 218 217 213 207 205 207 201 212 226 220 220 219 215 226 234
286 286 260 247 243 232 224 222 223 222 222 221 218 218 219 219 217 217 217 214 214 215 216 216 216 218 219 221 222 222 221 217 215 211 217 233 237 228 223 218 221 227 234
286 279 266 254 254 249 240 229 227 228 229 227 224 224 224 224 223 222 220 220 218 218 221 221 222 223 224 227 228 226 224 227 223 224 235 239 233 234 225 222 232 221 233
280 272 274 274 269 254 248 246 237 232 233 232 229 230 227 226 225 226 224 221 223 221 222 224 224 225 228 231 233 231 228 230 228 231 241 228 235 239 233 224 224 237 232
286 273 271 267 266 261 254 246 245 240 237 237 235 235 234 232 230 228 227 224 222 224 224 225 227 226 230 232 236 233 233 237 231 237 237 223 231 278 251 244 219 230 231
278 266 263 262 258 262 257 249 243 245 242 239 237 239 240 235 233 231 228 227 225 222 225 226 228 229 232 234 237 239 239 241 242 244 241 241 244 259 260 266 220 232 235
275 267 259 253 253 260 255 249 246 242 238 240 237 238 241 239 237 230 229 228 227 226 223 226 228 233 235 239 241 243 242 240 246 252 245 248 249 259 251 237 226 229 237
288 267 258 253 251 251 249 246 242 241 237 233 236 238 242 242 238 234 231 230 228 227 225 225 226 230 235 237 237 242 245 248 248 244 248 251 256 259 250 241 230 225 232
277 263 257 259 252 246 249 247 248 247 241 233 232 234 239 243 239 237 231 229 229 227 227 226 223 226 231 236 232 236 244 249 249 244 248 255 260 256 256 242 230 231 229
286 271 264 264 262 249 243 246 245 245 244 236 233 230 233 239 237 236 233 232 230 229 229 229 224 224 226 234 234 230 230 241 253 255 252 258 255 259 250 249 236 226 225
297 288 272 261 256 252 244 237 232 235 223 225 231 229 227 235 235 234 236 233 232 230 230 232 230 227 226 232 233 234 233 234 232 255 255 260 254 250 255 245 242 230 220
298 296 288 266 256 245 242 238 236 232 234 227 232 230 226 232 232 233 232 231 230 230 231 232 232 229 227 232 239 237 235 244 246 251 253 264 262 249 253 260 252 235 217
302 294 288 277 259 246 240 239 235 234 227 219 226 229 226 228 229 229 229 229 230 231 231 232 235 231 235 235 242 242 240 242 244 246 248 253 252 258 267 254 253 231 221